SCP
0 0 0 0 0 0 0 0 0 0 0 0 0 0 0 0 0 0 0 0 0 0
0 0 0 0 0 0 0 0 0 0 0 0 0 0 0 0 0 0 0 0 0 0
0 0 0 0 0 0 0 0 0 0 0 0 0 0 0 0 0 0 0 0 0 0
0 0 0 0 0 0 0 0 0 0 0 0 0 0 0 0 0 0 0 0 0 0
0 0 0 0 0 0 0 0 0 0 0 0 0 0 0 0 0 0 0 0 0 0
0 0 0 0 0 0 0 0 0 0 0 0 0 0 0 0 0 0 0 0 0 0
0 0 0 0 0 0 0 0 0 0 0 0 0 0 0 0 0 0 0 0 0 0
0 0 0 0 0 0 0 0 0 0 0 0 0 0 0 0 0 0 0 0 0 0
0 0 0 0 0 0 0 0 0 0 0 0 0 0 0 0 0 0 0 0 0 0
0 0 0 0 0 0 0 0 0 0 0 0 0 0 0 0 0 0 0 0 0 0
0 0 0 0 0 0 0 0 0 0 0 0 0 0 0 0 0 0 0 0 0 0
0 0 0 0 0 0 0 0 0 0 0 0 0 0 0 0 0 0 0 0 0 0
0 0 0 0 0 0 0 0 0 0 0 0 0 0 0 0 0 0 0 0 0 0
0 0 0 0 0 0 0 0 0 0 0 0 0 0 0 0 0 0 0 0 0 0
Wind_Speed_500mb
21 18 16 13 10 5 1 3 7 11 14 18 21 24 26 28 30 32 33 36 40 43
21 19 16 14 11 9 9 7 8 10 12 16 20 24 27 30 31 31 33 35 38 44
25 23 21 18 16 13 11 9 9 11 15 18 22 25 27 29 32 33 34 37 40 44
31 30 26 23 19 16 14 10 9 13 18 22 26 28 31 33 35 36 39 41 45 48
38 36 32 29 25 21 13 11 10 14 20 25 30 35 36 37 39 42 45 48 50 53
44 42 38 34 29 23 17 14 12 17 23 29 35 39 42 44 43 45 46 49 52 55
50 47 43 40 35 29 24 20 19 21 26 30 37 42 44 45 46 48 49 51 54 56
53 52 49 47 42 37 32 29 27 28 29 33 38 43 45 49 50 51 51 53 55 58
59 57 54 51 48 44 42 39 38 36 36 36 38 44 47 51 52 54 55 56 57 59
62 58 56 56 54 53 51 50 47 44 44 44 42 45 48 53 57 58 57 57 59 61
61 60 59 60 60 59 58 58 55 53 51 50 48 46 49 55 59 60 59 59 59 60
59 61 61 63 63 63 63 63 61 58 56 53 51 50 54 58 61 61 59 59 58 58
49 55 59 59 62 65 65 64 63 61 58 56 54 53 56 59 61 61 60 59 56 55
43 48 50 54 59 64 65 65 64 61 59 60 59 58 59 58 60 58 58 59 59 57
Wind_Direction_500mb
180 175 164 155 155 154 174 312 321 320 326 325 327 325 323 323 325 329 332 336 338 339
193 189 188 183 189 210 235 257 275 289 306 314 315 321 322 323 322 324 328 330 333 333
205 206 209 212 218 226 237 250 268 299 318 324 323 318 316 316 317 321 323 325 327 328
214 219 221 224 225 230 237 255 299 319 323 325 321 319 318 316 316 319 320 325 326 327
220 223 225 227 230 232 240 266 297 317 325 326 327 323 319 316 315 319 322 325 324 324
223 226 229 231 231 237 243 261 293 315 320 325 323 321 318 315 313 314 315 318 319 321
229 230 232 233 235 237 244 257 280 296 308 315 318 315 313 310 310 309 312 315 317 318
232 232 232 236 240 242 250 262 273 284 294 304 310 310 312 309 308 306 308 311 312 314
234 234 238 241 244 248 253 262 268 276 285 292 300 309 309 306 305 304 305 308 310 312
238 242 243 245 249 252 258 262 269 275 280 284 294 303 307 305 304 303 303 306 309 310
243 245 245 248 253 257 260 267 270 272 276 281 291 300 304 304 301 300 302 305 307 309
244 246 249 254 259 262 264 268 269 272 275 278 288 298 301 301 300 300 302 304 306 309
247 250 254 261 264 264 265 266 268 271 274 278 286 294 297 298 296 299 302 302 303 307
251 255 259 262 263 264 264 264 268 271 274 279 286 292 294 293 292 295 297 298 302 305
Wind_Speed_850mb
21 18 16 13 10 5 1 3 7 11 14 18 21 24 26 28 30 32 33 36 40 43
21 19 16 14 11 9 9 7 8 10 12 16 20 24 27 30 31 31 33 35 38 44
25 23 21 18 16 13 11 9 9 11 15 18 22 25 27 29 32 33 34 37 40 44
31 30 26 23 19 16 14 10 9 13 18 22 26 28 31 33 35 36 39 41 45 48
38 36 32 29 25 21 13 11 10 14 20 25 30 35 36 37 39 42 45 48 50 53
44 42 38 34 29 23 17 14 12 17 23 29 35 39 42 44 43 45 46 49 52 55
50 47 43 40 35 29 24 20 19 21 26 30 37 42 44 45 46 48 49 51 54 56
53 52 49 47 42 37 32 29 27 28 29 33 38 43 45 49 50 51 51 53 55 58
59 57 54 51 48 44 42 39 38 36 36 36 38 44 47 51 52 54 55 56 57 59
62 58 56 56 54 53 51 50 47 44 44 44 42 45 48 53 57 58 57 57 59 61
61 60 59 60 60 59 58 58 55 53 51 50 48 46 49 55 59 60 59 59 59 60
59 61 61 63 63 63 63 63 61 58 56 53 51 50 54 58 61 61 59 59 58 58
49 55 59 59 62 65 65 64 63 61 58 56 54 53 56 59 61 61 60 59 56 55
43 48 50 54 59 64 65 65 64 61 59 60 59 58 59 58 60 58 58 59 59 57
Wind_Direction_850mb
180 175 164 155 155 154 174 312 321 320 326 325 327 325 323 323 325 329 332 336 338 339
193 189 188 183 189 210 235 257 275 289 306 314 315 321 322 323 322 324 328 330 333 333
205 206 209 212 218 226 237 250 268 299 318 324 323 318 316 316 317 321 323 325 327 328
214 219 221 224 225 230 237 255 299 319 323 325 321 319 318 316 316 319 320 325 326 327
220 223 225 227 230 232 240 266 297 317 325 326 327 323 319 316 315 319 322 325 324 324
223 226 229 231 231 237 243 261 293 315 320 325 323 321 318 315 313 314 315 318 319 321
229 230 232 233 235 237 244 257 280 296 308 315 318 315 313 310 310 309 312 315 317 318
232 232 232 236 240 242 250 262 273 284 294 304 310 310 312 309 308 306 308 311 312 314
234 234 238 241 244 248 253 262 268 276 285 292 300 309 309 306 305 304 305 308 310 312
238 242 243 245 249 252 258 262 269 275 280 284 294 303 307 305 304 303 303 306 309 310
243 245 245 248 253 257 260 267 270 272 276 281 291 300 304 304 301 300 302 305 307 309
244 246 249 254 259 262 264 268 269 272 275 278 288 298 301 301 300 300 302 304 306 309
247 250 254 261 264 264 265 266 268 271 274 278 286 294 297 298 296 299 302 302 303 307
251 255 259 262 263 264 264 264 268 271 274 279 286 292 294 293 292 295 297 298 302 305